owner,sensor,date,latitude,longitude,vertical_datum,wind_speed,wind_to_direction,wind_speed_of_gust,qcFlag 
COMPS,ioos:station:USF.COMPS:SHP:1,2014-02-01T00:00:00Z,30.0600,-84.2910,10.0,2.13,86.58,3.43,'1111122,1111122,1111122' 
COMPS,ioos:station:USF.COMPS:SHP:1,2014-02-01T00:06:00Z,30.0600,-84.2910,10.0,1.91,77.21,3.62,'1111122,1111122,1111122' 
COMPS,ioos:station:USF.COMPS:SHP:1,2014-02-01T00:12:00Z,30.0600,-84.2910,10.0,1.4,79.35,3.13,'1111122,1111122,1111122' 
COMPS,ioos:station:USF.COMPS:SHP:1,2014-02-01T00:18:00Z,30.0600,-84.2910,10.0,1.47,69.86,3.13,'1111122,1111122,1111122' 
COMPS,ioos:station:USF.COMPS:SHP:1,2014-02-01T00:24:00Z,30.0600,-84.2910,10.0,1.44,58.17,3.13,'1111122,1111122,1111122' 
COMPS,ioos:station:USF.COMPS:SHP:1,2014-02-01T00:30:00Z,30.0600,-84.2910,10.0,1.66,72.72,3.52,'1111122,1111122,1111122' 
COMPS,ioos:station:USF.COMPS:SHP:1,2014-02-01T00:36:00Z,30.0600,-84.2910,10.0,1.33,54.04,3.13,'1111122,1111122,1111122' 
COMPS,ioos:station:USF.COMPS:SHP:1,2014-02-01T00:42:00Z,30.0600,-84.2910,10.0,1.12,60.84,2.64,'1111122,1111122,1111122' 
COMPS,ioos:station:USF.COMPS:SHP:1,2014-02-01T00:48:00Z,30.0600,-84.2910,10.0,1.02,66.12,2.45,'1111122,1111122,1111122' 
COMPS,ioos:station:USF.COMPS:SHP:1,2014-02-01T00:54:00Z,30.0600,-84.2910,10.0,1.15,64.97,3.13,'1111122,1111122,1111122' 
COMPS,ioos:station:USF.COMPS:SHP:1,2014-02-01T01:00:00Z,30.0600,-84.2910,10.0,0.89,43.78,1.56,'1111122,1111122,1111122' 
COMPS,ioos:station:USF.COMPS:SHP:1,2014-02-01T01:06:00Z,30.0600,-84.2910,10.0,1.18,42.9,1.86,'1111122,1111122,1111122' 
COMPS,ioos:station:USF.COMPS:SHP:1,2014-02-01T01:12:00Z,30.0600,-84.2910,10.0,0.87,54.04,1.56,'1111122,1111122,1111122' 
COMPS,ioos:station:USF.COMPS:SHP:1,2014-02-01T01:18:00Z,30.0600,-84.2910,10.0,0.95,48.23,1.86,'1111122,1111122,1111122' 
COMPS,ioos:station:USF.COMPS:SHP:1,2014-02-01T01:24:00Z,30.0600,-84.2910,10.0,0.78,45.26,1.96,'1111122,1111122,1111122' 
COMPS,ioos:station:USF.COMPS:SHP:1,2014-02-01T01:30:00Z,30.0600,-84.2910,10.0,0.59,57.76,1.66,'1111122,1111122,1111122' 
COMPS,ioos:station:USF.COMPS:SHP:1,2014-02-01T01:36:00Z,30.0600,-84.2910,10.0,0.91,53.52,1.66,'1111122,1111122,1111122' 
COMPS,ioos:station:USF.COMPS:SHP:1,2014-02-01T01:42:00Z,30.0600,-84.2910,10.0,0.91,42.86,2.25,'1111122,1111122,1111122' 
COMPS,ioos:station:USF.COMPS:SHP:1,2014-02-01T01:48:00Z,30.0600,-84.2910,10.0,1.06,43.14,1.96,'1111122,1111122,1111122' 
COMPS,ioos:station:USF.COMPS:SHP:1,2014-02-01T01:54:00Z,30.0600,-84.2910,10.0,0.73,42.9,1.86,'1111122,1111122,1111122' 
COMPS,ioos:station:USF.COMPS:SHP:1,2014-02-01T02:00:00Z,30.0600,-84.2910,10.0,0.81,43.9,1.96,'1111122,1111122,1111122' 
COMPS,ioos:station:USF.COMPS:SHP:1,2014-02-01T02:06:00Z,30.0600,-84.2910,10.0,0.91,48.45,1.86,'1111122,1111122,1111122' 
COMPS,ioos:station:USF.COMPS:SHP:1,2014-02-01T02:12:00Z,30.0600,-84.2910,10.0,0.89,66.01,2.05,'1111122,1111122,1111122' 
COMPS,ioos:station:USF.COMPS:SHP:1,2014-02-01T02:18:00Z,30.0600,-84.2910,10.0,0.96,83.25,2.35,'1111122,1111122,1111122' 
COMPS,ioos:station:USF.COMPS:SHP:1,2014-02-01T02:24:00Z,30.0600,-84.2910,10.0,1.09,84.36,2.05,'1111122,1111122,1111122' 
COMPS,ioos:station:USF.COMPS:SHP:1,2014-02-01T02:30:00Z,30.0600,-84.2910,10.0,1.06,78.67,2.15,'1111122,1111122,1111122' 
COMPS,ioos:station:USF.COMPS:SHP:1,2014-02-01T02:36:00Z,30.0600,-84.2910,10.0,1.14,81.15,2.74,'1111122,1111122,1111122' 
COMPS,ioos:station:USF.COMPS:SHP:1,2014-02-01T02:42:00Z,30.0600,-84.2910,10.0,1.21,80.86,2.45,'1111122,1111122,1111122' 
COMPS,ioos:station:USF.COMPS:SHP:1,2014-02-01T02:48:00Z,30.0600,-84.2910,10.0,1.24,80.14,3.03,'1111122,1111122,1111122' 
COMPS,ioos:station:USF.COMPS:SHP:1,2014-02-01T02:54:00Z,30.0600,-84.2910,10.0,1.75,91.16,3.43,'1111122,1111122,1111122' 
COMPS,ioos:station:USF.COMPS:SHP:1,2014-02-01T03:00:00Z,30.0600,-84.2910,10.0,1.69,90.23,3.03,'1111122,1111122,1111122' 
COMPS,ioos:station:USF.COMPS:SHP:1,2014-02-01T03:06:00Z,30.0600,-84.2910,10.0,0.93,81.84,2.54,'1111122,1111122,1111122' 
COMPS,ioos:station:USF.COMPS:SHP:1,2014-02-01T03:12:00Z,30.0600,-84.2910,10.0,1.11,74.0,2.25,'1111122,1111122,1111122' 
COMPS,ioos:station:USF.COMPS:SHP:1,2014-02-01T03:18:00Z,30.0600,-84.2910,10.0,1.12,76.02,2.64,'1111122,1111122,1111122' 
COMPS,ioos:station:USF.COMPS:SHP:1,2014-02-01T03:24:00Z,30.0600,-84.2910,10.0,1.37,71.21,3.33,'1111122,1111122,1111122' 
COMPS,ioos:station:USF.COMPS:SHP:1,2014-02-01T03:30:00Z,30.0600,-84.2910,10.0,0.75,68.13,2.25,'1111122,1111122,1111122' 
COMPS,ioos:station:USF.COMPS:SHP:1,2014-02-01T03:36:00Z,30.0600,-84.2910,10.0,1.34,70.47,2.94,'1111122,1111122,1111122' 
COMPS,ioos:station:USF.COMPS:SHP:1,2014-02-01T03:42:00Z,30.0600,-84.2910,10.0,1.85,82.05,4.5,'1111122,1111122,1111122' 
COMPS,ioos:station:USF.COMPS:SHP:1,2014-02-01T03:48:00Z,30.0600,-84.2910,10.0,1.88,79.62,4.5,'1111122,1111122,1111122' 
COMPS,ioos:station:USF.COMPS:SHP:1,2014-02-01T03:54:00Z,30.0600,-84.2910,10.0,1.87,88.15,3.92,'1111122,1111122,1111122' 
COMPS,ioos:station:USF.COMPS:SHP:1,2014-02-01T04:00:00Z,30.0600,-84.2910,10.0,1.75,83.04,4.31,'1111122,1111122,1111122' 
COMPS,ioos:station:USF.COMPS:SHP:1,2014-02-01T04:06:00Z,30.0600,-84.2910,10.0,1.7,81.2,3.92,'1111122,1111122,1111122' 
COMPS,ioos:station:USF.COMPS:SHP:1,2014-02-01T04:12:00Z,30.0600,-84.2910,10.0,1.94,87.81,3.52,'1111122,1111122,1111122' 
COMPS,ioos:station:USF.COMPS:SHP:1,2014-02-01T04:18:00Z,30.0600,-84.2910,10.0,1.2,95.12,3.13,'1111122,1111122,1111122' 
COMPS,ioos:station:USF.COMPS:SHP:1,2014-02-01T04:24:00Z,30.0600,-84.2910,10.0,1.23,88.93,3.13,'1111122,1111122,1111122' 
COMPS,ioos:station:USF.COMPS:SHP:1,2014-02-01T04:30:00Z,30.0600,-84.2910,10.0,1.4,82.14,3.43,'1111122,1111122,1111122' 
COMPS,ioos:station:USF.COMPS:SHP:1,2014-02-01T04:36:00Z,30.0600,-84.2910,10.0,2.1,92.22,3.52,'1111122,1111122,1111122' 
COMPS,ioos:station:USF.COMPS:SHP:1,2014-02-01T04:42:00Z,30.0600,-84.2910,10.0,2.88,99.7,4.31,'1111122,1111122,1111122' 
COMPS,ioos:station:USF.COMPS:SHP:1,2014-02-01T04:48:00Z,30.0600,-84.2910,10.0,2.37,95.76,4.99,'1111122,1111122,1111122' 
COMPS,ioos:station:USF.COMPS:SHP:1,2014-02-01T04:54:00Z,30.0600,-84.2910,10.0,2.25,90.44,3.92,'1111122,1111122,1111122' 
COMPS,ioos:station:USF.COMPS:SHP:1,2014-02-01T05:00:00Z,30.0600,-84.2910,10.0,1.71,87.35,3.92,'1111122,1111122,1111122' 
COMPS,ioos:station:USF.COMPS:SHP:1,2014-02-01T05:06:00Z,30.0600,-84.2910,10.0,1.83,78.39,3.43,'1111122,1111122,1111122' 
COMPS,ioos:station:USF.COMPS:SHP:1,2014-02-01T05:12:00Z,30.0600,-84.2910,10.0,2.73,91.39,5.09,'1111122,1111122,1111122' 
COMPS,ioos:station:USF.COMPS:SHP:1,2014-02-01T05:18:00Z,30.0600,-84.2910,10.0,1.7,87.95,3.92,'1111122,1111122,1111122' 
COMPS,ioos:station:USF.COMPS:SHP:1,2014-02-01T05:24:00Z,30.0600,-84.2910,10.0,1.64,76.24,3.72,'1111122,1111122,1111122' 
COMPS,ioos:station:USF.COMPS:SHP:1,2014-02-01T05:30:00Z,30.0600,-84.2910,10.0,1.94,80.31,4.21,'1111122,1111122,1111122' 
COMPS,ioos:station:USF.COMPS:SHP:1,2014-02-01T05:36:00Z,30.0600,-84.2910,10.0,1.97,76.91,4.5,'1111122,1111122,1111122' 
COMPS,ioos:station:USF.COMPS:SHP:1,2014-02-01T05:42:00Z,30.0600,-84.2910,10.0,2.23,73.54,4.7,'1111122,1111122,1111122' 
COMPS,ioos:station:USF.COMPS:SHP:1,2014-02-01T05:48:00Z,30.0600,-84.2910,10.0,1.95,69.61,4.31,'1111122,1111122,1111122' 
COMPS,ioos:station:USF.COMPS:SHP:1,2014-02-01T05:54:00Z,30.0600,-84.2910,10.0,1.64,79.51,4.31,'1111122,1111122,1111122' 
COMPS,ioos:station:USF.COMPS:SHP:1,2014-02-01T06:00:00Z,30.0600,-84.2910,10.0,1.67,80.59,3.82,'1111122,1111122,1111122' 
COMPS,ioos:station:USF.COMPS:SHP:1,2014-02-01T06:06:00Z,30.0600,-84.2910,10.0,1.62,74.13,3.52,'1111122,1111122,1111122' 
COMPS,ioos:station:USF.COMPS:SHP:1,2014-02-01T06:12:00Z,30.0600,-84.2910,10.0,2.0,79.48,5.09,'1111122,1111122,1111122' 
COMPS,ioos:station:USF.COMPS:SHP:1,2014-02-01T06:18:00Z,30.0600,-84.2910,10.0,2.65,86.48,5.78,'1111122,1111122,1111122' 
COMPS,ioos:station:USF.COMPS:SHP:1,2014-02-01T06:24:00Z,30.0600,-84.2910,10.0,1.89,76.63,3.92,'1111122,1111122,1111122' 
COMPS,ioos:station:USF.COMPS:SHP:1,2014-02-01T06:30:00Z,30.0600,-84.2910,10.0,1.91,87.62,4.01,'1111122,1111122,1111122' 
COMPS,ioos:station:USF.COMPS:SHP:1,2014-02-01T06:36:00Z,30.0600,-84.2910,10.0,1.41,75.59,3.33,'1111122,1111122,1111122' 
COMPS,ioos:station:USF.COMPS:SHP:1,2014-02-01T06:42:00Z,30.0600,-84.2910,10.0,1.78,78.96,3.52,'1111122,1111122,1111122' 
COMPS,ioos:station:USF.COMPS:SHP:1,2014-02-01T06:48:00Z,30.0600,-84.2910,10.0,0.97,77.13,3.23,'1111122,1111122,1111122' 
COMPS,ioos:station:USF.COMPS:SHP:1,2014-02-01T06:54:00Z,30.0600,-84.2910,10.0,1.33,85.88,2.54,'1111122,1111122,1111122' 
COMPS,ioos:station:USF.COMPS:SHP:1,2014-02-01T07:00:00Z,30.0600,-84.2910,10.0,1.27,77.07,2.94,'1111122,1111122,1111122' 
COMPS,ioos:station:USF.COMPS:SHP:1,2014-02-01T07:06:00Z,30.0600,-84.2910,10.0,1.44,77.83,3.43,'1111122,1111122,1111122' 
COMPS,ioos:station:USF.COMPS:SHP:1,2014-02-01T07:12:00Z,30.0600,-84.2910,10.0,1.01,82.91,2.54,'1111122,1111122,1111122' 
COMPS,ioos:station:USF.COMPS:SHP:1,2014-02-01T07:18:00Z,30.0600,-84.2910,10.0,1.44,86.07,3.23,'1111122,1111122,1111122' 
COMPS,ioos:station:USF.COMPS:SHP:1,2014-02-01T07:24:00Z,30.0600,-84.2910,10.0,1.14,72.53,2.84,'1111122,1111122,1111122' 
COMPS,ioos:station:USF.COMPS:SHP:1,2014-02-01T07:30:00Z,30.0600,-84.2910,10.0,0.76,47.8,1.66,'1111122,1111122,1111122' 
COMPS,ioos:station:USF.COMPS:SHP:1,2014-02-01T07:36:00Z,30.0600,-84.2910,10.0,1.03,19.99,1.96,'1111122,1111122,1111122' 
COMPS,ioos:station:USF.COMPS:SHP:1,2014-02-01T07:42:00Z,30.0600,-84.2910,10.0,1.1,8.34,1.66,'1111122,1111122,1111122' 
COMPS,ioos:station:USF.COMPS:SHP:1,2014-02-01T07:48:00Z,30.0600,-84.2910,10.0,1.32,10.43,1.86,'1111122,1111122,1111122' 
COMPS,ioos:station:USF.COMPS:SHP:1,2014-02-01T07:54:00Z,30.0600,-84.2910,10.0,1.22,11.14,1.76,'1111122,1111122,1111122' 
COMPS,ioos:station:USF.COMPS:SHP:1,2014-02-01T08:00:00Z,30.0600,-84.2910,10.0,0.94,21.2,1.96,'1111122,1111122,1111122' 
COMPS,ioos:station:USF.COMPS:SHP:1,2014-02-01T08:06:00Z,30.0600,-84.2910,10.0,1.09,10.14,1.56,'1111122,1111122,1111122' 
COMPS,ioos:station:USF.COMPS:SHP:1,2014-02-01T08:12:00Z,30.0600,-84.2910,10.0,0.79,349.95,1.37,'1111122,1111122,1111122' 
COMPS,ioos:station:USF.COMPS:SHP:1,2014-02-01T08:18:00Z,30.0600,-84.2910,10.0,0.74,345.21,1.27,'1111122,1111122,1111122' 
COMPS,ioos:station:USF.COMPS:SHP:1,2014-02-01T08:24:00Z,30.0600,-84.2910,10.0,0.56,3.76,0.97,'1111122,1111122,1111122' 
COMPS,ioos:station:USF.COMPS:SHP:1,2014-02-01T08:30:00Z,30.0600,-84.2910,10.0,0.75,8.65,1.37,'1111122,1111122,1111122' 
COMPS,ioos:station:USF.COMPS:SHP:1,2014-02-01T08:36:00Z,30.0600,-84.2910,10.0,0.19,31.03,0.78,'1111122,1111122,1111122' 
COMPS,ioos:station:USF.COMPS:SHP:1,2014-02-01T08:42:00Z,30.0600,-84.2910,10.0,0.13,54.64,0.58,'1111122,1111122,1111122' 
COMPS,ioos:station:USF.COMPS:SHP:1,2014-02-01T08:48:00Z,30.0600,-84.2910,10.0,0.22,80.25,0.58,'1111122,1111122,1111122' 
COMPS,ioos:station:USF.COMPS:SHP:1,2014-02-01T08:54:00Z,30.0600,-84.2910,10.0,0.54,75.67,1.27,'1111122,1111122,1111122' 
COMPS,ioos:station:USF.COMPS:SHP:1,2014-02-01T09:00:00Z,30.0600,-84.2910,10.0,0.21,59.95,0.88,'1111122,1111122,1111122' 
COMPS,ioos:station:USF.COMPS:SHP:1,2014-02-01T09:06:00Z,30.0600,-84.2910,10.0,0.36,29.11,1.47,'1111122,1111122,1111122' 
COMPS,ioos:station:USF.COMPS:SHP:1,2014-02-01T09:12:00Z,30.0600,-84.2910,10.0,0.23,26.33,0.78,'1111122,1111122,1111122' 
COMPS,ioos:station:USF.COMPS:SHP:1,2014-02-01T09:18:00Z,30.0600,-84.2910,10.0,0.17,25.06,0.68,'1111122,1111122,1111122' 
COMPS,ioos:station:USF.COMPS:SHP:1,2014-02-01T09:24:00Z,30.0600,-84.2910,10.0,0.1,19.79,0.29,'1111122,1111122,1111122' 
COMPS,ioos:station:USF.COMPS:SHP:1,2014-02-01T09:30:00Z,30.0600,-84.2910,10.0,0.27,14.97,0.78,'1111122,1111122,1111122' 
COMPS,ioos:station:USF.COMPS:SHP:1,2014-02-01T09:36:00Z,30.0600,-84.2910,10.0,0.34,30.94,1.17,'1111122,1111122,1111122' 
COMPS,ioos:station:USF.COMPS:SHP:1,2014-02-01T09:42:00Z,30.0600,-84.2910,10.0,0.27,26.79,0.68,'1111122,1111122,1111122' 
COMPS,ioos:station:USF.COMPS:SHP:1,2014-02-01T09:48:00Z,30.0600,-84.2910,10.0,0.55,357.95,1.07,'1111122,1111122,1111122' 
COMPS,ioos:station:USF.COMPS:SHP:1,2014-02-01T09:54:00Z,30.0600,-84.2910,10.0,0.97,350.58,1.96,'1111122,1111122,1111122' 
COMPS,ioos:station:USF.COMPS:SHP:1,2014-02-01T10:00:00Z,30.0600,-84.2910,10.0,1.26,344.14,1.76,'1111122,1111122,1111122' 
COMPS,ioos:station:USF.COMPS:SHP:1,2014-02-01T10:06:00Z,30.0600,-84.2910,10.0,0.34,353.16,1.07,'1111122,1111122,1111122' 
COMPS,ioos:station:USF.COMPS:SHP:1,2014-02-01T10:12:00Z,30.0600,-84.2910,10.0,0.49,11.51,0.88,'1111122,1111122,1111122' 
COMPS,ioos:station:USF.COMPS:SHP:1,2014-02-01T10:18:00Z,30.0600,-84.2910,10.0,0.8,10.72,1.27,'1111122,1111122,1111122' 
COMPS,ioos:station:USF.COMPS:SHP:1,2014-02-01T10:24:00Z,30.0600,-84.2910,10.0,0.58,15.94,1.27,'1111122,1111122,1111122' 
COMPS,ioos:station:USF.COMPS:SHP:1,2014-02-01T10:30:00Z,30.0600,-84.2910,10.0,0.17,18.21,0.58,'1111122,1111122,1111122' 
COMPS,ioos:station:USF.COMPS:SHP:1,2014-02-01T10:36:00Z,30.0600,-84.2910,10.0,0.2,33.23,0.68,'1111122,1111122,1111122' 
COMPS,ioos:station:USF.COMPS:SHP:1,2014-02-01T10:42:00Z,30.0600,-84.2910,10.0,0.38,84.63,1.76,'1111122,1111122,1111122' 
COMPS,ioos:station:USF.COMPS:SHP:1,2014-02-01T10:48:00Z,30.0600,-84.2910,10.0,1.15,92.09,2.25,'1111122,1111122,1111122' 
COMPS,ioos:station:USF.COMPS:SHP:1,2014-02-01T10:54:00Z,30.0600,-84.2910,10.0,0.47,70.65,1.66,'1111122,1111122,1111122' 
COMPS,ioos:station:USF.COMPS:SHP:1,2014-02-01T11:00:00Z,30.0600,-84.2910,10.0,0.83,71.24,2.35,'1111122,1111122,1111122' 
COMPS,ioos:station:USF.COMPS:SHP:1,2014-02-01T11:06:00Z,30.0600,-84.2910,10.0,0.81,67.74,2.35,'1111122,1111122,1111122' 
COMPS,ioos:station:USF.COMPS:SHP:1,2014-02-01T11:12:00Z,30.0600,-84.2910,10.0,0.79,60.26,1.76,'1111122,1111122,1111122' 
COMPS,ioos:station:USF.COMPS:SHP:1,2014-02-01T11:18:00Z,30.0600,-84.2910,10.0,0.43,50.48,1.37,'1111122,1111122,1111122' 
COMPS,ioos:station:USF.COMPS:SHP:1,2014-02-01T11:24:00Z,30.0600,-84.2910,10.0,0.63,37.26,1.56,'1111122,1111122,1111122' 
COMPS,ioos:station:USF.COMPS:SHP:1,2014-02-01T11:30:00Z,30.0600,-84.2910,10.0,0.76,34.78,1.66,'1111122,1111122,1111122' 
COMPS,ioos:station:USF.COMPS:SHP:1,2014-02-01T11:36:00Z,30.0600,-84.2910,10.0,0.68,27.51,1.56,'1111122,1111122,1111122' 
COMPS,ioos:station:USF.COMPS:SHP:1,2014-02-01T11:42:00Z,30.0600,-84.2910,10.0,0.84,9.89,1.37,'1111122,1111122,1111122' 
COMPS,ioos:station:USF.COMPS:SHP:1,2014-02-01T11:48:00Z,30.0600,-84.2910,10.0,1.12,346.25,1.66,'1111122,1111122,1111122' 
COMPS,ioos:station:USF.COMPS:SHP:1,2014-02-01T11:54:00Z,30.0600,-84.2910,10.0,1.46,4.12,1.86,'1111122,1111122,1111122' 
COMPS,ioos:station:USF.COMPS:SHP:1,2014-02-01T12:00:00Z,30.0600,-84.2910,10.0,1.12,7.23,1.76,'1111122,1111122,1111122' 
COMPS,ioos:station:USF.COMPS:SHP:1,2014-02-01T12:06:00Z,30.0600,-84.2910,10.0,0.69,12.75,1.37,'1111122,1111122,1111122' 
COMPS,ioos:station:USF.COMPS:SHP:1,2014-02-01T12:12:00Z,30.0600,-84.2910,10.0,0.99,6.2,1.56,'1111122,1111122,1111122' 
COMPS,ioos:station:USF.COMPS:SHP:1,2014-02-01T12:18:00Z,30.0600,-84.2910,10.0,1.11,359.97,1.66,'1111122,1111122,1111122' 
COMPS,ioos:station:USF.COMPS:SHP:1,2014-02-01T12:24:00Z,30.0600,-84.2910,10.0,0.94,354.17,1.47,'1111122,1111122,1111122' 
COMPS,ioos:station:USF.COMPS:SHP:1,2014-02-01T12:30:00Z,30.0600,-84.2910,10.0,0.85,1.56,1.56,'1111122,1111122,1111122' 
COMPS,ioos:station:USF.COMPS:SHP:1,2014-02-01T12:36:00Z,30.0600,-84.2910,10.0,0.84,352.84,1.47,'1111122,1111122,1111122' 
COMPS,ioos:station:USF.COMPS:SHP:1,2014-02-01T12:42:00Z,30.0600,-84.2910,10.0,1.45,339.77,1.96,'1111122,1111122,1111122' 
COMPS,ioos:station:USF.COMPS:SHP:1,2014-02-01T12:48:00Z,30.0600,-84.2910,10.0,2.01,334.37,2.74,'1111122,1111122,1111122' 
COMPS,ioos:station:USF.COMPS:SHP:1,2014-02-01T12:54:00Z,30.0600,-84.2910,10.0,2.53,320.46,3.62,'1111122,1111122,1111122' 
COMPS,ioos:station:USF.COMPS:SHP:1,2014-02-01T13:00:00Z,30.0600,-84.2910,10.0,2.14,345.17,3.03,'1111122,1111122,1111122' 
COMPS,ioos:station:USF.COMPS:SHP:1,2014-02-01T13:06:00Z,30.0600,-84.2910,10.0,1.94,356.45,2.54,'1111122,1111122,1111122' 
COMPS,ioos:station:USF.COMPS:SHP:1,2014-02-01T13:12:00Z,30.0600,-84.2910,10.0,1.64,5.93,2.25,'1111122,1111122,1111122' 
COMPS,ioos:station:USF.COMPS:SHP:1,2014-02-01T13:18:00Z,30.0600,-84.2910,10.0,1.04,19.37,1.96,'1111122,1111122,1111122' 
COMPS,ioos:station:USF.COMPS:SHP:1,2014-02-01T13:24:00Z,30.0600,-84.2910,10.0,1.17,34.69,2.15,'1111122,1111122,1111122' 
COMPS,ioos:station:USF.COMPS:SHP:1,2014-02-01T13:30:00Z,30.0600,-84.2910,10.0,1.04,8.47,1.56,'1111122,1111122,1111122' 
COMPS,ioos:station:USF.COMPS:SHP:1,2014-02-01T13:36:00Z,30.0600,-84.2910,10.0,1.17,7.04,1.56,'1111122,1111122,1111122' 
COMPS,ioos:station:USF.COMPS:SHP:1,2014-02-01T13:42:00Z,30.0600,-84.2910,10.0,1.18,357.49,1.56,'1111122,1111122,1111122' 
COMPS,ioos:station:USF.COMPS:SHP:1,2014-02-01T13:48:00Z,30.0600,-84.2910,10.0,1.05,5.14,1.66,'1111122,1111122,1111122' 
COMPS,ioos:station:USF.COMPS:SHP:1,2014-02-01T13:54:00Z,30.0600,-84.2910,10.0,1.1,5.23,1.66,'1111122,1111122,1111122' 
COMPS,ioos:station:USF.COMPS:SHP:1,2014-02-01T14:00:00Z,30.0600,-84.2910,10.0,0.43,11.98,1.37,'1111122,1111122,1111122' 
COMPS,ioos:station:USF.COMPS:SHP:1,2014-02-01T14:06:00Z,30.0600,-84.2910,10.0,0.59,9.01,1.47,'1111122,1111122,1111122' 
COMPS,ioos:station:USF.COMPS:SHP:1,2014-02-01T14:12:00Z,30.0600,-84.2910,10.0,1.26,359.61,1.76,'1111122,1111122,1111122' 
COMPS,ioos:station:USF.COMPS:SHP:1,2014-02-01T14:18:00Z,30.0600,-84.2910,10.0,0.61,24.52,1.47,'1111122,1111122,1111122' 
COMPS,ioos:station:USF.COMPS:SHP:1,2014-02-01T14:24:00Z,30.0600,-84.2910,10.0,0.17,20.97,0.78,'1111122,1111122,1111122' 
COMPS,ioos:station:USF.COMPS:SHP:1,2014-02-01T14:30:00Z,30.0600,-84.2910,10.0,0.22,25.99,0.78,'1111122,1111122,1111122' 
COMPS,ioos:station:USF.COMPS:SHP:1,2014-02-01T14:36:00Z,30.0600,-84.2910,10.0,0.13,35.87,0.49,'1111122,1111122,1111122' 
COMPS,ioos:station:USF.COMPS:SHP:1,2014-02-01T14:42:00Z,30.0600,-84.2910,10.0,0.11,24.32,0.49,'1111122,1111122,1111122' 
COMPS,ioos:station:USF.COMPS:SHP:1,2014-02-01T14:48:00Z,30.0600,-84.2910,10.0,0.14,35.19,0.68,'1111122,1111122,1111122' 
COMPS,ioos:station:USF.COMPS:SHP:1,2014-02-01T14:54:00Z,30.0600,-84.2910,10.0,0.16,27.76,0.49,'1111122,1111122,1111122' 
COMPS,ioos:station:USF.COMPS:SHP:1,2014-02-01T15:00:00Z,30.0600,-84.2910,10.0,0.24,70.01,1.17,'1111122,1111122,1111122' 
COMPS,ioos:station:USF.COMPS:SHP:1,2014-02-01T15:06:00Z,30.0600,-84.2910,10.0,0.18,29.58,0.78,'1111122,1111122,1111122' 
COMPS,ioos:station:USF.COMPS:SHP:1,2014-02-01T15:12:00Z,30.0600,-84.2910,10.0,0.52,31.68,1.37,'1111122,1111122,1111122' 
COMPS,ioos:station:USF.COMPS:SHP:1,2014-02-01T15:18:00Z,30.0600,-84.2910,10.0,0.56,22.34,1.07,'1111122,1111122,1111122' 
COMPS,ioos:station:USF.COMPS:SHP:1,2014-02-01T15:24:00Z,30.0600,-84.2910,10.0,0.29,49.05,0.88,'1111122,1111122,1111122' 
COMPS,ioos:station:USF.COMPS:SHP:1,2014-02-01T15:30:00Z,30.0600,-84.2910,10.0,0.14,38.16,0.68,'1111122,1111122,1111122' 
COMPS,ioos:station:USF.COMPS:SHP:1,2014-02-01T15:36:00Z,30.0600,-84.2910,10.0,0.25,4.52,0.58,'1111122,1111122,1111122' 
COMPS,ioos:station:USF.COMPS:SHP:1,2014-02-01T15:42:00Z,30.0600,-84.2910,10.0,0.15,17.01,0.49,'1111122,1111122,1111122' 
COMPS,ioos:station:USF.COMPS:SHP:1,2014-02-01T15:48:00Z,30.0600,-84.2910,10.0,0.09,16.63,0.09,'1111122,1111122,1111122' 
COMPS,ioos:station:USF.COMPS:SHP:1,2014-02-01T15:54:00Z,30.0600,-84.2910,10.0,0.09,99.48,0.09,'1111122,1111122,1111122' 
COMPS,ioos:station:USF.COMPS:SHP:1,2014-02-01T16:00:00Z,30.0600,-84.2910,10.0,0.1,56.39,0.19,'1111122,1111122,1111122' 
COMPS,ioos:station:USF.COMPS:SHP:1,2014-02-01T16:06:00Z,30.0600,-84.2910,10.0,0.27,20.86,0.88,'1111122,1111122,1111122' 
COMPS,ioos:station:USF.COMPS:SHP:1,2014-02-01T16:12:00Z,30.0600,-84.2910,10.0,0.19,210.27,0.58,'1111122,1111122,1111122' 
COMPS,ioos:station:USF.COMPS:SHP:1,2014-02-01T16:18:00Z,30.0600,-84.2910,10.0,0.47,234.04,0.78,'1111122,1111122,1111122' 
COMPS,ioos:station:USF.COMPS:SHP:1,2014-02-01T16:24:00Z,30.0600,-84.2910,10.0,0.24,221.68,0.68,'1111122,1111122,1111122' 
COMPS,ioos:station:USF.COMPS:SHP:1,2014-02-01T16:30:00Z,30.0600,-84.2910,10.0,0.09,204.6,0.09,'1111122,1111122,1111122' 
COMPS,ioos:station:USF.COMPS:SHP:1,2014-02-01T16:36:00Z,30.0600,-84.2910,10.0,0.1,211.81,0.19,'1111122,1111122,1111122' 
COMPS,ioos:station:USF.COMPS:SHP:1,2014-02-01T16:42:00Z,30.0600,-84.2910,10.0,0.31,192.45,0.58,'1111122,1111122,1111122' 
COMPS,ioos:station:USF.COMPS:SHP:1,2014-02-01T16:48:00Z,30.0600,-84.2910,10.0,0.93,149.73,1.27,'1111122,1111122,1111122' 
COMPS,ioos:station:USF.COMPS:SHP:1,2014-02-01T16:54:00Z,30.0600,-84.2910,10.0,1.02,138.49,1.47,'1111122,1111122,1111122' 
COMPS,ioos:station:USF.COMPS:SHP:1,2014-02-01T17:00:00Z,30.0600,-84.2910,10.0,0.56,156.98,0.88,'1111122,1111122,1111122' 
COMPS,ioos:station:USF.COMPS:SHP:1,2014-02-01T17:06:00Z,30.0600,-84.2910,10.0,0.92,143.6,1.27,'1111122,1111122,1111122' 
COMPS,ioos:station:USF.COMPS:SHP:1,2014-02-01T17:12:00Z,30.0600,-84.2910,10.0,0.88,153.61,1.17,'1111122,1111122,1111122' 
COMPS,ioos:station:USF.COMPS:SHP:1,2014-02-01T17:18:00Z,30.0600,-84.2910,10.0,0.51,143.26,0.88,'1111122,1111122,1111122' 
COMPS,ioos:station:USF.COMPS:SHP:1,2014-02-01T17:24:00Z,30.0600,-84.2910,10.0,0.86,158.38,1.17,'1111122,1111122,1111122' 
COMPS,ioos:station:USF.COMPS:SHP:1,2014-02-01T17:30:00Z,30.0600,-84.2910,10.0,1.61,162.95,1.96,'1111122,1111122,1111122' 
COMPS,ioos:station:USF.COMPS:SHP:1,2014-02-01T17:36:00Z,30.0600,-84.2910,10.0,1.71,169.34,1.96,'1111122,1111122,1111122' 
COMPS,ioos:station:USF.COMPS:SHP:1,2014-02-01T17:42:00Z,30.0600,-84.2910,10.0,0.99,178.37,1.96,'1111122,1111122,1111122' 
COMPS,ioos:station:USF.COMPS:SHP:1,2014-02-01T17:48:00Z,30.0600,-84.2910,10.0,0.99,190.62,1.47,'1111122,1111122,1111122' 
COMPS,ioos:station:USF.COMPS:SHP:1,2014-02-01T17:54:00Z,30.0600,-84.2910,10.0,1.44,191.32,2.15,'1111122,1111122,1111122' 
COMPS,ioos:station:USF.COMPS:SHP:1,2014-02-01T18:00:00Z,30.0600,-84.2910,10.0,1.03,200.81,1.47,'1111122,1111122,1111122' 
COMPS,ioos:station:USF.COMPS:SHP:1,2014-02-01T18:06:00Z,30.0600,-84.2910,10.0,0.84,186.97,1.27,'1111122,1111122,1111122' 
COMPS,ioos:station:USF.COMPS:SHP:1,2014-02-01T18:12:00Z,30.0600,-84.2910,10.0,0.87,174.02,1.76,'1111122,1111122,1111122' 
COMPS,ioos:station:USF.COMPS:SHP:1,2014-02-01T18:18:00Z,30.0600,-84.2910,10.0,1.53,169.26,2.15,'1111122,1111122,1111122' 
COMPS,ioos:station:USF.COMPS:SHP:1,2014-02-01T18:24:00Z,30.0600,-84.2910,10.0,1.44,168.18,1.76,'1111122,1111122,1111122' 
COMPS,ioos:station:USF.COMPS:SHP:1,2014-02-01T18:30:00Z,30.0600,-84.2910,10.0,1.84,164.16,2.15,'1111122,1111122,1111122' 
COMPS,ioos:station:USF.COMPS:SHP:1,2014-02-01T18:36:00Z,30.0600,-84.2910,10.0,2.1,150.97,2.45,'1111122,1111122,1111122' 
COMPS,ioos:station:USF.COMPS:SHP:1,2014-02-01T18:42:00Z,30.0600,-84.2910,10.0,2.62,144.41,2.94,'1111122,1111122,1111122' 
COMPS,ioos:station:USF.COMPS:SHP:1,2014-02-01T18:48:00Z,30.0600,-84.2910,10.0,2.6,140.11,2.84,'1111122,1111122,1111122' 
COMPS,ioos:station:USF.COMPS:SHP:1,2014-02-01T18:54:00Z,30.0600,-84.2910,10.0,2.3,141.58,2.45,'1111122,1111122,1111122' 
COMPS,ioos:station:USF.COMPS:SHP:1,2014-02-01T19:00:00Z,30.0600,-84.2910,10.0,2.55,142.14,2.74,'1111122,1111122,1111122' 
COMPS,ioos:station:USF.COMPS:SHP:1,2014-02-01T19:06:00Z,30.0600,-84.2910,10.0,2.73,145.67,2.94,'1111122,1111122,1111122' 
COMPS,ioos:station:USF.COMPS:SHP:1,2014-02-01T19:12:00Z,30.0600,-84.2910,10.0,2.7,139.2,3.03,'1111122,1111122,1111122' 
COMPS,ioos:station:USF.COMPS:SHP:1,2014-02-01T19:18:00Z,30.0600,-84.2910,10.0,2.98,139.94,3.33,'1111122,1111122,1111122' 
COMPS,ioos:station:USF.COMPS:SHP:1,2014-02-01T19:24:00Z,30.0600,-84.2910,10.0,2.94,138.6,3.23,'1111122,1111122,1111122' 
COMPS,ioos:station:USF.COMPS:SHP:1,2014-02-01T19:30:00Z,30.0600,-84.2910,10.0,2.9,135.76,3.23,'1111122,1111122,1111122' 
COMPS,ioos:station:USF.COMPS:SHP:1,2014-02-01T19:36:00Z,30.0600,-84.2910,10.0,2.71,134.7,3.13,'1111122,1111122,1111122' 